Year,Month,Day,Hour,Minute,Value (Times are PST for temperature in C)
2013,03,20,10,04,7.30
2013,03,20,10,05,7.30
2013,03,20,10,06,7.30
2013,03,20,10,07,7.30
2013,03,20,10,08,7.40
2013,03,20,10,09,7.40
2013,03,20,10,10,7.40
2013,03,20,10,11,7.40
2013,03,20,10,12,7.40
2013,03,20,10,13,7.40
2013,03,20,10,14,7.50
2013,03,20,10,15,7.50
2013,03,20,10,16,7.50
2013,03,20,10,17,7.50
2013,03,20,10,18,7.50
2013,03,20,10,19,7.50
2013,03,20,10,20,7.50
2013,03,20,10,21,7.50
2013,03,20,10,22,7.50
2013,03,20,10,23,7.60
2013,03,20,10,24,7.60
2013,03,20,10,25,7.70
2013,03,20,10,26,7.80
2013,03,20,10,27,7.80
2013,03,20,10,28,7.80
2013,03,20,10,29,7.90
2013,03,20,10,30,8.00
2013,03,20,10,31,8.00
2013,03,20,10,32,8.00
2013,03,20,10,33,8.00
2013,03,20,10,34,8.00
2013,03,20,10,35,8.00
2013,03,20,10,36,8.00
2013,03,20,10,37,8.00
2013,03,20,10,38,7.90
2013,03,20,10,39,7.90
2013,03,20,10,40,7.90
2013,03,20,10,41,7.90
2013,03,20,10,42,7.90
2013,03,20,10,43,8.00
2013,03,20,10,44,7.90
2013,03,20,10,45,8.00
2013,03,20,10,46,8.00
2013,03,20,10,47,8.00
2013,03,20,10,48,8.00
2013,03,20,10,49,8.00
2013,03,20,10,50,8.00
2013,03,20,10,51,8.00
2013,03,20,10,52,8.00
2013,03,20,10,53,7.90
2013,03,20,10,54,7.90
2013,03,20,10,55,8.00
2013,03,20,10,56,7.90
2013,03,20,10,57,7.90
2013,03,20,10,58,7.90
2013,03,20,10,59,7.90
2013,03,20,11,00,7.90
2013,03,20,11,01,7.90
2013,03,20,11,02,7.90
2013,03,20,11,03,7.90
2013,03,20,11,04,8.00
2013,03,20,11,05,8.10
2013,03,20,11,06,8.20
2013,03,20,11,07,8.30
2013,03,20,11,08,8.50
2013,03,20,11,09,8.60
2013,03,20,11,10,8.60
2013,03,20,11,11,8.70
2013,03,20,11,12,8.80
2013,03,20,11,13,8.80
2013,03,20,11,14,8.80
2013,03,20,11,15,9.00
2013,03,20,11,16,8.90
2013,03,20,11,17,8.90
2013,03,20,11,18,8.90
2013,03,20,11,19,8.90
2013,03,20,11,20,8.80
2013,03,20,11,21,8.80
2013,03,20,11,22,8.90
2013,03,20,11,23,9.00
2013,03,20,11,24,9.00
2013,03,20,11,25,9.00
2013,03,20,11,26,9.00
2013,03,20,11,27,9.00
2013,03,20,11,28,9.00
2013,03,20,11,29,9.10
2013,03,20,11,30,9.20
2013,03,20,11,31,9.30
2013,03,20,11,32,9.30
2013,03,20,11,33,9.30
2013,03,20,11,34,9.20
2013,03,20,11,35,9.20
2013,03,20,11,36,9.30
2013,03,20,11,37,9.40
2013,03,20,11,38,9.40
2013,03,20,11,39,9.40
2013,03,20,11,40,9.30
2013,03,20,11,41,9.30
2013,03,20,11,42,9.30
2013,03,20,11,43,9.20
2013,03,20,11,44,9.20
2013,03,20,11,45,9.20
2013,03,20,11,46,9.30
2013,03,20,11,47,9.30
2013,03,20,11,48,9.40
2013,03,20,11,49,9.40
2013,03,20,11,50,9.50
2013,03,20,11,51,9.60
2013,03,20,11,52,9.70
2013,03,20,11,53,9.70
2013,03,20,11,54,9.90
2013,03,20,11,55,9.90
2013,03,20,11,56,9.90
2013,03,20,11,57,9.90
2013,03,20,11,58,9.90
2013,03,20,11,59,10.00
2013,03,20,12,00,10.10
2013,03,20,12,01,10.10
2013,03,20,12,02,10.10
2013,03,20,12,03,10.10
2013,03,20,12,04,10.10
2013,03,20,12,05,10.20
2013,03,20,12,06,10.20
2013,03,20,12,07,10.30
2013,03,20,12,08,10.40
2013,03,20,12,09,10.40
2013,03,20,12,10,10.40
2013,03,20,12,11,10.40
2013,03,20,12,12,10.50
2013,03,20,12,13,10.60
2013,03,20,12,14,10.60
2013,03,20,12,15,10.60
2013,03,20,12,16,10.70
2013,03,20,12,17,10.70
2013,03,20,12,18,10.80
2013,03,20,12,19,10.90
2013,03,20,12,20,10.90
2013,03,20,12,21,10.90
2013,03,20,12,22,11.00
2013,03,20,12,23,11.10
2013,03,20,12,24,11.00
2013,03,20,12,25,10.90
2013,03,20,12,26,10.80
2013,03,20,12,27,10.80
2013,03,20,12,28,10.80
2013,03,20,12,29,10.70
2013,03,20,12,30,10.80
2013,03,20,12,31,10.90
2013,03,20,12,32,10.90
2013,03,20,12,33,10.90
2013,03,20,12,34,10.90
2013,03,20,12,35,10.90
2013,03,20,12,36,10.90
2013,03,20,12,37,11.00
2013,03,20,12,38,11.10
2013,03,20,12,39,11.10
2013,03,20,12,40,11.10
2013,03,20,12,41,11.10
2013,03,20,12,42,11.10
2013,03,20,12,43,11.10
2013,03,20,12,44,11.10
2013,03,20,12,45,11.00
2013,03,20,12,46,10.90
2013,03,20,12,47,10.80
2013,03,20,12,48,10.80
2013,03,20,12,49,10.80
2013,03,20,12,50,10.90
2013,03,20,12,51,10.90
2013,03,20,12,52,10.90
2013,03,20,12,53,11.00
2013,03,20,12,54,11.00
2013,03,20,12,55,10.90
2013,03,20,12,56,10.90
2013,03,20,12,57,10.90
2013,03,20,12,58,10.90
2013,03,20,12,59,10.80
2013,03,20,13,00,10.80
2013,03,20,13,01,10.70
2013,03,20,13,02,10.60
2013,03,20,13,03,10.60
2013,03,20,13,04,10.60
2013,03,20,13,05,10.60
2013,03,20,13,06,10.60
2013,03,20,13,07,10.60
2013,03,20,13,08,10.60
2013,03,20,13,09,10.60
2013,03,20,13,10,10.60
2013,03,20,13,11,10.60
2013,03,20,13,12,10.60
2013,03,20,13,13,10.50
2013,03,20,13,14,10.40
2013,03,20,13,15,10.30
2013,03,20,13,16,10.30
2013,03,20,13,17,10.20
2013,03,20,13,18,10.20
2013,03,20,13,19,10.30
2013,03,20,13,20,10.30
2013,03,20,13,21,10.30
2013,03,20,13,22,10.40
2013,03,20,13,23,10.50
2013,03,20,13,24,10.60
2013,03,20,13,25,10.60
2013,03,20,13,26,10.70
2013,03,20,13,27,10.80
2013,03,20,13,28,10.70
2013,03,20,13,29,10.60
2013,03,20,13,30,10.60
2013,03,20,13,31,10.70
2013,03,20,13,32,10.50
2013,03,20,13,33,10.30
2013,03,20,13,34,10.20
2013,03,20,13,35,10.10
2013,03,20,13,36,10.10
2013,03,20,13,37,10.10
2013,03,20,13,38,10.10
2013,03,20,13,39,10.10
2013,03,20,13,40,10.10
2013,03,20,13,41,10.10
2013,03,20,13,42,10.10
2013,03,20,13,43,10.10
2013,03,20,13,44,10.10
2013,03,20,13,45,10.10
2013,03,20,13,46,10.10
2013,03,20,13,47,10.20
2013,03,20,13,48,10.30
2013,03,20,13,49,10.20
2013,03,20,13,50,10.20
2013,03,20,13,51,10.20
2013,03,20,13,52,10.30
2013,03,20,13,53,10.30
2013,03,20,13,54,10.40
2013,03,20,13,55,10.30
2013,03,20,13,56,10.30
2013,03,20,13,57,10.40
2013,03,20,13,58,10.40
2013,03,20,13,59,10.40
2013,03,20,14,00,10.30
2013,03,20,14,01,10.20
2013,03,20,14,02,10.10
2013,03,20,14,03,10.00
2013,03,20,14,04,9.80
2013,03,20,14,05,9.70
2013,03,20,14,06,9.70
2013,03,20,14,07,9.70
2013,03,20,14,08,9.70
2013,03,20,14,09,9.70
2013,03,20,14,10,9.80
2013,03,20,14,11,9.80
2013,03,20,14,12,9.80
2013,03,20,14,13,9.80
2013,03,20,14,14,9.80
2013,03,20,14,15,9.70
2013,03,20,14,16,9.70
2013,03,20,14,17,9.70
2013,03,20,14,18,9.60
2013,03,20,14,19,9.60
2013,03,20,14,20,9.60
2013,03,20,14,21,9.60
2013,03,20,14,22,9.60
2013,03,20,14,23,9.70
2013,03,20,14,24,9.70
2013,03,20,14,25,9.80
2013,03,20,14,26,9.90
2013,03,20,14,27,9.90
2013,03,20,14,28,10.00
2013,03,20,14,29,10.10
2013,03,20,14,30,10.10
2013,03,20,14,31,10.20
2013,03,20,14,32,10.20
2013,03,20,14,33,10.20
2013,03,20,14,34,10.30
2013,03,20,14,35,10.20
2013,03,20,14,36,10.10
2013,03,20,14,37,10.10
2013,03,20,14,38,9.90
2013,03,20,14,39,9.80
2013,03,20,14,40,9.70
2013,03,20,14,41,9.60
2013,03,20,14,42,9.50
2013,03,20,14,43,9.40
2013,03,20,14,44,9.30
2013,03,20,14,45,9.30
2013,03,20,14,46,9.30
2013,03,20,14,47,9.20
2013,03,20,14,48,9.10
2013,03,20,14,49,9.00
2013,03,20,14,50,8.90
2013,03,20,14,51,8.80
2013,03,20,14,52,8.70
2013,03,20,14,53,8.70
2013,03,20,14,54,8.60
2013,03,20,14,55,8.50
2013,03,20,14,56,8.40
2013,03,20,14,57,8.40
2013,03,20,14,58,8.40
2013,03,20,14,59,8.40
2013,03,20,15,00,8.30
2013,03,20,15,01,8.20
2013,03,20,15,02,8.10
2013,03,20,15,03,8.10
2013,03,20,15,04,8.10
2013,03,20,15,05,8.10
2013,03,20,15,06,8.10
2013,03,20,15,07,8.10
2013,03,20,15,08,8.10
2013,03,20,15,09,8.00
2013,03,20,15,10,8.00
2013,03,20,15,11,8.00
2013,03,20,15,12,8.00
2013,03,20,15,13,8.00
2013,03,20,15,14,8.00
2013,03,20,15,15,8.00
2013,03,20,15,16,8.00
2013,03,20,15,17,8.00
2013,03,20,15,18,8.00
2013,03,20,15,19,8.10
2013,03,20,15,20,8.10
2013,03,20,15,21,8.10
2013,03,20,15,22,8.10
2013,03,20,15,23,8.10
2013,03,20,15,24,8.10
2013,03,20,15,25,8.10
2013,03,20,15,26,8.10
2013,03,20,15,27,8.20
2013,03,20,15,28,8.30
2013,03,20,15,29,8.30
2013,03,20,15,30,8.40
2013,03,20,15,31,8.30
2013,03,20,15,32,8.30
2013,03,20,15,33,8.20
2013,03,20,15,34,8.20
2013,03,20,15,35,8.20
2013,03,20,15,36,8.10
2013,03,20,15,37,8.10
2013,03,20,15,38,8.10
2013,03,20,15,39,8.10
2013,03,20,15,40,8.10
2013,03,20,15,41,8.00
2013,03,20,15,42,7.90
2013,03,20,15,43,7.90
2013,03,20,15,44,7.80
2013,03,20,15,45,7.80
2013,03,20,15,46,7.80
2013,03,20,15,47,7.80
2013,03,20,15,48,7.80
2013,03,20,15,49,7.80
2013,03,20,15,50,7.70
2013,03,20,15,51,7.70
2013,03,20,15,52,7.70
2013,03,20,15,53,7.70
2013,03,20,15,54,7.60
2013,03,20,15,55,7.60
2013,03,20,15,56,7.50
2013,03,20,15,57,7.50
2013,03,20,15,58,7.40
2013,03,20,15,59,7.40
2013,03,20,16,00,7.40
2013,03,20,16,01,7.40
2013,03,20,16,02,7.40
2013,03,20,16,03,7.30
2013,03,20,16,04,7.30
2013,03,20,16,05,7.30
2013,03,20,16,06,7.20
2013,03,20,16,07,7.20
2013,03,20,16,08,7.10
2013,03,20,16,09,7.00
2013,03,20,16,10,7.00
2013,03,20,16,11,6.90
2013,03,20,16,12,6.90
2013,03,20,16,13,6.80
2013,03,20,16,14,6.80
2013,03,20,16,15,6.80
2013,03,20,16,16,6.80
2013,03,20,16,17,6.80
2013,03,20,16,18,6.80
2013,03,20,16,19,6.80
2013,03,20,16,20,6.80
2013,03,20,16,21,6.80
2013,03,20,16,22,6.80
2013,03,20,16,23,6.80
2013,03,20,17,48,4.10
2013,03,20,17,49,4.10
2013,03,20,17,50,4.10
2013,03,20,17,51,4.10
2013,03,20,17,52,4.10
2013,03,20,17,53,4.10
2013,03,20,17,54,4.10
2013,03,20,17,55,4.00
2013,03,20,17,56,4.00
2013,03,20,17,57,4.10
2013,03,20,17,58,4.10
2013,03,20,17,59,4.10
2013,03,20,18,00,4.10
2013,03,20,18,01,4.10
2013,03,20,18,02,4.10
2013,03,20,18,03,4.10
2013,03,20,18,04,4.20
2013,03,20,18,05,4.20
2013,03,20,18,06,4.20
2013,03,20,18,07,4.20
2013,03,20,18,08,4.30
2013,03,20,18,09,4.40
2013,03,20,18,10,4.40
2013,03,20,18,11,4.50
2013,03,20,18,12,4.60
2013,03,20,18,13,4.60
2013,03,20,18,14,4.60
2013,03,20,18,15,4.60
2013,03,20,18,16,4.60
2013,03,20,18,17,4.60
2013,03,20,18,18,4.60
2013,03,20,18,19,4.60
2013,03,20,18,20,4.60
2013,03,20,18,21,4.60
2013,03,20,18,22,4.60
2013,03,20,18,23,4.60
2013,03,20,18,24,4.60
2013,03,20,18,25,4.60
2013,03,20,18,26,4.60
2013,03,20,18,27,4.60
2013,03,20,18,28,4.60
2013,03,20,18,29,4.60
2013,03,20,18,30,4.60
